Location: Izdebno
(52.6670°N, 16.2170°E)
Time: 07:49:21
(UTC+02:00)

A-11 Canister half - All Passes

Search period start: 08 September 2024 00:00
Search period end: 18 September 2024 00:00
Orbit: 1523 x 1684 km, 47.3° (Epoch: 07 September)

Date Brightness Start Highest point End Pass type
(mag) Time Alt. Az. Time Alt. Az. Time Alt. Az.
08 Sep - 15:16:29 10° S 15:23:36 24° SE 15:30:53 10° E daylight
08 Sep - 17:17:44 10° SW 17:26:57 51° SSE 17:36:28 10° E daylight
08 Sep - 19:21:37 10° W 19:31:18 66° S 19:41:16 10° ESE daylight
08 Sep - 21:26:13 10° W 21:35:40 50° SSW 21:45:17 10° SE visible
08 Sep - 23:31:43 10° W 23:39:04 24° SW 23:46:30 10° S visible
09 Sep - 14:55:02 10° S 15:01:55 23° SE 15:09:00 10° E daylight
09 Sep - 16:56:04 10° SW 17:05:12 50° SSE 17:14:40 10° E daylight
09 Sep - 18:59:52 10° WSW 19:09:31 66° S 19:19:28 10° E daylight
09 Sep - 21:04:27 10° W 21:13:54 52° SSW 21:23:33 10° SE visible
09 Sep - 23:09:51 10° W 23:17:23 25° SW 23:24:59 10° S visible
10 Sep - 14:33:35 10° S 14:40:16 22° SE 14:47:05 10° E daylight
10 Sep - 16:34:23 10° SW 16:43:28 49° SSE 16:52:51 10° E daylight
10 Sep - 18:38:08 10° WSW 18:47:45 65° S 18:57:41 10° E daylight
10 Sep - 20:42:41 10° W 20:52:09 53° SSW 21:01:50 10° SE visible
10 Sep - 22:48:00 10° W 22:55:40 26° SW 23:03:27 10° S visible
11 Sep - 14:12:10 10° S 14:18:36 21° SE 14:25:09 10° E daylight
11 Sep - 16:12:44 10° SW 16:21:44 48° SSE 16:31:03 10° E daylight
11 Sep - 18:16:23 10° WSW 18:25:58 65° S 18:35:53 10° E daylight
11 Sep - 20:20:55 10° W 20:30:23 54° SSW 20:40:05 10° SE visible
11 Sep - 22:26:09 10° W 22:33:58 27° SW 22:41:53 10° S visible
12 Sep - 13:50:46 10° S 13:56:55 20° SE 14:03:12 10° E daylight
12 Sep - 15:51:04 10° SW 16:00:00 46° SSE 16:09:14 10° E daylight
12 Sep - 17:54:39 10° WSW 18:04:12 65° S 18:14:05 10° E daylight
12 Sep - 19:59:09 10° W 20:08:38 55° SSW 20:18:21 10° SE visible
12 Sep - 22:04:18 10° W 22:12:16 28° SW 22:20:20 10° S visible
13 Sep - 13:29:24 10° SSE 13:35:16 18° SE 13:41:15 10° E daylight
13 Sep - 15:29:25 10° SW 15:38:16 45° SSE 15:47:26 10° E daylight
13 Sep - 17:32:55 10° WSW 17:42:26 65° S 17:52:17 10° E daylight
13 Sep - 19:37:23 10° W 19:46:52 56° SSW 19:56:36 10° SE visible
13 Sep - 21:42:29 10° W 21:50:33 29° SW 21:58:46 10° SSE visible
14 Sep - 13:08:04 10° SSE 13:13:37 17° SE 13:19:15 10° E daylight
14 Sep - 15:07:47 10° SW 15:16:33 44° SSE 15:25:37 10° E daylight
14 Sep - 17:11:11 10° WSW 17:20:40 64° S 17:30:29 10° E daylight
14 Sep - 19:15:38 10° W 19:25:07 57° SSW 19:34:51 10° SE daylight
14 Sep - 21:20:39 10° W 21:28:50 31° SW 21:37:10 10° SSE visible
15 Sep - 12:46:45 10° SSE 12:51:57 16° SE 12:57:14 10° E daylight
15 Sep - 14:46:09 10° SW 14:54:50 42° SSE 15:03:48 10° E daylight
15 Sep - 16:49:27 10° WSW 16:58:54 64° S 17:08:41 10° E daylight
15 Sep - 18:53:53 10° W 19:03:21 58° SSW 19:13:07 10° ESE daylight
15 Sep - 20:58:51 10° W 21:07:08 32° SW 21:15:34 10° SSE visible
16 Sep - 12:25:30 10° SSE 12:30:19 15° SE 12:35:11 10° E daylight
16 Sep - 14:24:31 10° SSW 14:33:07 41° SSE 14:41:59 10° E daylight
16 Sep - 16:27:44 10° WSW 16:37:08 63° S 16:46:54 10° E daylight
16 Sep - 18:32:08 10° W 18:41:35 58° SSW 18:51:20 10° ESE daylight
16 Sep - 20:37:02 10° W 20:45:25 33° SW 20:53:58 10° SSE visible
17 Sep - 12:04:18 10° SSE 12:08:40 14° SE 12:13:06 10° E daylight
17 Sep - 14:02:54 10° SSW 14:11:24 40° SSE 14:20:10 10° E daylight
17 Sep - 16:06:01 10° WSW 16:15:23 63° S 16:25:06 10° E daylight
17 Sep - 18:10:23 10° W 18:19:50 59° SSW 18:29:35 10° ESE daylight
17 Sep - 20:15:15 10° W 20:23:42 34° SW 20:32:20 10° SSE visible
17 Sep - 22:24:44 10° WSW 22:26:18 10° WSW 22:27:52 10° SW visible
